PY2FGD-15 Weather Reports


time (UTC)temp
F
wind
direction
speed
knots
gust
knots
rain 1hr
in
rain 24hr
in
rain mn
in
humidity
%
barometer
mb
20260505112003 69 52 0.9 0.9 0.10 0.30 0.20 83 1020.0
20260505111004 68 52 0.9 0.9 0.10 0.30 0.20 84 1020.0
20260505102003 65 52 0.9 1.7 0.10 0.30 0.20 90 1020.0
20260505101003 66 52 1.7 2.6 0.10 0.30 0.20 90 1020.0
20260505100006 66 52 1.7 2.6 0.10 0.30 0.20 90 1020.0
20260505095004 67 52 2.6 2.6 0.10 0.30 0.20 90 1020.0
20260505094003 68 52 2.6 2.6 0.10 0.30 0.20 90 1020.0
20260505093004 68 52 2.6 2.6 0.10 0.30 0.20 90 1020.0
20260505092003 72 57 2.6 3.5 0.10 0.30 0.20 90 1019.0
20260505091003 72 57 2.6 3.5 0.10 0.30 0.20 90 1019.0
20260505090003 73 57 2.6 3.5 0.10 0.30 0.20 91 1019.0
20260505084004 73 57 2.6 3.5 0.10 0.30 0.20 90 1019.0
20260505082003 72 57 2.6 3.5 0.10 0.30 0.20 87 1019.0
20260505081003 72 57 2.6 3.5 0.10 0.30 0.20 87 1019.0
20260505080003 73 57 2.6 3.5 0.10 0.30 0.20 90 1019.0
20260505075003 73 57 2.6 3.5 0.10 0.30 0.20 90 1019.0
20260505074003 73 57 2.6 3.5 0.10 0.30 0.20 91 1019.0
20260505073004 73 57 2.6 3.5 0.10 0.30 0.20 91 1019.0
20260505072003 72 72 2.6 2.6 0.10 0.30 0.20 89 1019.0
20260505071003 73 72 2.6 2.6 0.10 0.30 0.20 93 1019.0
20260505070003 73 72 2.6 2.6 0.10 0.30 0.20 93 1019.0
20260505065002 73 72 2.6 2.6 0.10 0.30 0.20 93 1019.0
20260505064010 73 72 2.6 2.6 0.10 0.30 0.20 93 1019.0
20260505063003 73 72 2.6 2.6 0.10 0.30 0.20 92 1019.0
20260505062005 72 93 2.6 2.6 0.10 0.30 0.20 91 1019.0
20260505061003 72 93 2.6 2.6 0.10 0.30 0.20 91 1019.0
20260505055003 74 93 2.6 2.6 0.10 0.30 0.20 90 1019.0
20260505054003 74 97 2.6 2.6 0.10 0.30 0.20 89 1020.0
20260505053008 74 97 2.6 2.6 0.10 0.30 0.20 89 1020.0
20260505052003 73 109 2.6 2.6 0.10 0.30 0.20 88 1020.0
20260505041004 74 123 2.6 3.5 0.10 0.30 0.20 89 1020.0
20260505040004 74 123 2.6 3.5 0.10 0.30 0.20 89 1020.0
20260505035004 74 123 2.6 3.5 0.10 0.30 0.20 89 1020.0
20260505034003 57 353 4.3 4.3 0.10 0.30 0.20 87 1020.0
20260505033003 58 353 4.3 4.3 0.10 0.30 0.20 87 1020.0
20260505032008 59 353 4.3 4.3 0.10 0.30 0.20 87 1020.0
20260505031003 60 353 4.3 4.3 0.10 0.30 0.20 87 1020.0
20260505030006 60 353 4.3 4.3 0.10 0.30 0.20 87 1020.0
20260505025003 61 353 4.3 4.3 0.10 0.30 0.20 87 1020.0
20260505024003 62 353 4.3 4.3 0.10 0.30 0.20 87 1020.0
20260505023004 62 353 4.3 4.3 0.10 0.30 0.20 87 1020.0
20260505022003 63 353 4.3 4.3 0.10 0.30 0.20 87 1019.0
20260505020004 64 353 4.3 4.3 0.10 0.30 0.20 87 1019.0
20260505015002 65 353 4.3 4.3 0.10 0.30 0.20 87 1019.0
20260505014003 66 353 4.3 4.3 0.10 0.30 0.20 87 1019.0
20260505012005 66 353 4.3 4.3 0.10 0.30 0.20 86 1019.0
20260505011002 66 353 4.3 4.3 0.10 0.30 0.20 86 1019.0
20260505010009 67 353 4.3 4.3 0.10 0.30 0.20 86 1019.0
20260505005005 67 353 4.3 4.3 0.10 0.30 0.20 86 1019.0
20260505004003 67 353 4.3 4.3 0.10 0.30 0.20 86 1019.0
20260505003002 68 353 4.3 4.3 0.10 0.30 0.20 86 1019.0
20260505002004 68 353 4.3 4.3 0.10 0.30 0.20 85 1019.0
20260505001003 68 353 4.3 4.3 0.10 0.30 0.20 85 1019.0
20260505000003 68 353 4.3 4.3 0.10 0.30 0.20 83 1019.0
20260504235003 68 353 4.3 4.3 0.10 0.30 0.20 83 1019.0
20260504234003 68 353 4.3 4.3 0.10 0.30 0.20 83 1019.0
20260504233002 68 353 4.3 4.3 0.10 0.30 0.20 83 1019.0
20260504232003 69 353 4.3 4.3 0.10 0.30 0.20 83 1018.0
20260504231003 69 353 4.3 4.3 0.10 0.30 0.20 83 1018.0
20260504230003 69 353 4.3 4.3 0.10 0.30 0.20 83 1018.0
20260504224002 70 353 4.3 4.3 0.10 0.30 0.20 81 1018.0
20260504223004 71 353 4.3 4.3 0.10 0.30 0.20 78 1017.0
20260504222004 71 353 4.3 4.3 0.10 0.30 0.20 78 1017.0
20260504221003 71 353 4.3 4.3 0.10 0.30 0.20 78 1017.0
20260504220004 71 353 4.3 4.3 0.10 0.30 0.20 78 1017.0
20260504214004 71 353 4.3 4.3 0.10 0.30 0.20 78 1017.0
20260504213004 71 353 4.3 4.3 0.10 0.30 0.20 78 1017.0
20260504212003 71 353 4.3 4.3 0.10 0.30 0.20 78 1017.0
20260504210004 71 353 4.3 4.3 0.10 0.30 0.20 78 1016.0
20260504204004 71 353 4.3 4.3 0.10 0.30 0.20 78 1016.0
20260504203004 71 353 4.3 4.3 0.10 0.30 0.20 78 1016.0
20260504202003 71 353 4.3 4.3 0.10 0.30 0.20 78 1016.0
20260504200008 72 353 4.3 4.3 0.10 0.30 0.20 77 1016.0
20260504195002 74 353 4.3 4.3 0.10 0.30 0.20 75 1016.0
20260504193004 78 353 4.3 4.3 0.10 0.30 0.20 69 1016.0
20260504192003 79 353 4.3 4.3 0.10 0.30 0.20 69 1016.0
20260504190003 80 353 4.3 4.3 0.10 0.30 0.20 69 1016.0
20260504185003 81 353 4.3 4.3 0.10 0.30 0.20 69 1016.0
20260504184013 81 353 4.3 4.3 0.10 0.30 0.20 69 1016.0
20260504183003 82 353 4.3 4.3 0.10 0.30 0.20 69 1017.0
20260504181003 83 353 4.3 5.2 0.10 0.30 0.20 69 1017.0
20260504175003 71 15 3.5 4.3 0.10 0.30 0.20 77 1017.0
20260504174005 71 15 3.5 4.3 0.10 0.30 0.20 77 1017.0
20260504173003 71 29 4.3 4.3 0.10 0.30 0.20 74 1017.0
20260504171005 71 29 4.3 4.3 0.10 0.30 0.20 73 1017.0
20260504151003 69 142 3.5 3.5 0.10 0.30 0.20 74 1019.0
20260504141003 67 142 3.5 3.5 0.10 0.30 0.20 74 1020.0